This is the latest recevied weather packets stored in our database for station/object WD4DAN-13. If no packets are shown the sender has not sent any weather packets the latest 1 day(s).
| Time | Temp. | Humidity | Pressure | Rain* | Wind** | Luminosity | Snow |
|---|---|---|---|---|---|---|---|
| 1778015637 | 28.89° C | 46% | - | 0 mm | 1.79 m/s, 292° | - | - |
| 1778015333 | 28.89° C | 46% | - | 0 mm | 1.34 m/s, 274° | - | - |
| 1778015031 | 28.89° C | 46% | - | 0 mm | 2.24 m/s, 206° | - | - |
| 1778014727 | 28.89° C | 46% | - | 0 mm | 3.13 m/s, 353° | - | - |
| 1778014425 | 28.89° C | 45% | - | 0 mm | 3.13 m/s, 209° | - | - |
| 1778014122 | 28.89° C | 47% | - | 0 mm | 1.79 m/s, 279° | - | - |
| 1778013820 | 28.33° C | 47% | - | 0 mm | 3.13 m/s, 290° | - | - |
| 1778013517 | 29.44° C | 45% | - | 0 mm | 4.92 m/s, 341° | - | - |
| 1778013213 | 29.44° C | 48% | - | 0 mm | 1.79 m/s, 330° | - | - |
| 1778012910 | 28.89° C | 47% | - | 0 mm | 1.34 m/s, 299° | - | - |
| 1778012606 | 30° C | 47% | - | 0 mm | 1.34 m/s, 308° | - | - |
| 1778012303 | 28.89° C | 46% | - | 0 mm | 2.68 m/s, 295° | - | - |
| 1778012000 | 28.89° C | 46% | - | 0 mm | 0.45 m/s, 0° | - | - |
| 1778011698 | 29.44° C | 46% | - | 0 mm | 1.34 m/s, 315° | - | - |
| 1778011395 | 28.89° C | 46% | - | 0 mm | 0.89 m/s, 6° | - | - |
| 1778011090 | 30° C | 45% | - | 0 mm | 2.24 m/s, 254° | - | - |
| 1778010788 | 29.44° C | 48% | - | 0 mm | 1.34 m/s, 297° | - | - |
| 1778010485 | 28.89° C | 46% | - | 0 mm | 2.24 m/s, 275° | - | - |
| 1778010182 | 28.33° C | 48% | - | 0 mm | 0 m/s | - | - |
| 1778009877 | 28.89° C | 49% | - | 0 mm | 2.24 m/s, 223° | - | - |
| 1778009575 | 29.44° C | 46% | - | 0 mm | 0.89 m/s, 334° | - | - |
| 1778009273 | 28.89° C | 49% | - | 0 mm | 0 m/s | - | - |
| 1778008971 | 28.89° C | 46% | - | 0 mm | 0.89 m/s, 281° | - | - |
| 1778008668 | 28.89° C | 49% | - | 0 mm | 2.24 m/s, 275° | - | - |
| 1778008367 | 28.89° C | 51% | - | 0 mm | 0.89 m/s, 355° | - | - |
* Rain latest hour (hover to see other rain measurements)
** Current wind speed in m/s (hover to see current wind gust speed)